YAOGAN-3

Last updated on Mon Sep 07 2026 00:02:45 GMT+0000 (Coordinated Universal Time)

1 32289U 07055A 26249.60388565 .00000319 00000+0 37902-4 0 9992 2 32289 97.8128 278.6756 0001670 90.8042 269.3367 14.91035850 18000
UTC large
Height (km)
Speed (km/s)
/
Latitude / Longitude
Inclination (degrees)
Orbital Period (minutes)
Azimuth
Elevation
Range (km)
Doppler Factor

Next 0 passes for location: London (51.5072 / 0.1276)

No passes found over London.
YAOGAN-3